THORAD DELTA 1 DEB, 8183

Orbit data source: Space-Track

THORAD DELTA 1 DEB, 8183 is space debris in SSO originally from a launch on Fri, 15 Nov 1974 UTC launched from the Air Force Western Test Range (AFWTR). Debris objects in space refer to the collection of defunct objects orbiting the Earth. Examples of debris include non-operational satellites, rocket bodies, and fragments generated from explosions, collisions, or faulty payload assembly.

Loading next visibility...
Identifier
8183, 1974-089AZ
Orbit
SSO
Country
Flag of USUS
Related business
Manufacturer
Unknown
Mission
Spacecraft
Bus & Motor
Unknown
Mass
Unknown
Launch date (UTC)
1974-11-15 (51 years ago)
Launch vehicle
Unknown
Launch site
Air Force Western Test Range (AFWTR)
Object type
Payload
Rocket body
Debris
Shape & HBR
Unknown shape, 0.1 m
Radar Cross Section
Medium (>0.1 m² and <1 m²)

Expand to show TLE details & history
Last TLE update: 8 hours ago

TLE from 8 hours ago
0 THORAD DELTA 1 DEB
1  8183U 74089AZ  25289.05723079  .00000038  00000-0  60661-3 0  9990
2  8183 100.7820 137.4582 0106108 244.1780 274.5991 12.32951971290684
Epoch: 2025-10-16T01:22Z
TLE epoch observation values (Epoch: 2025-10-16T01:22:24.740Z)
Latitude
22.03315°
Longitude
-83.56879°
Altitude
1,533.171 km
Speed
7.104 km/s
True Right ascension
21h 27m 25s
True Declination
21° 55' 32"
Sunlit
Object was in daylight at epoch
Visualization orbit readout
Latitude
Unknown
Longitude
Unknown
Altitude
Unknown
Speed
Unknown
Apparent Right ascension
Unknown
Apparent Declination
Unknown
Sunlit
N/A
Visualization observer readout
Local Sidereal Time
03:36:29
Azimuth
Unknown
Elevation
Unknown
Doppler factor
Unknown
Orbital elements
Apogee altitude
1,618.093 km
Perigee altitude
1,450.182 km
Semi-major axis
7,912.275 km
Eccentricity
0.01061
Inclination
100.782°
RAAN
137.4582°
Arg. of periapsis
244.178°
True anomaly
273.38591°
Mean anomaly
274.5991°
Eccentric anomaly
273.99262°
Mean motion
3.08384 °/min
Orbital period
116.74 mins
BSTAR
0.00060661
Loading maneuver chart data...
Computing Atmospheric mass density...

Documentation

Showing up to 5 results
|